QPF
0.06 0.06 0.06 0.07 0.08 0.10 0.10 0.09 0.07 0.07 0.06 0.06 0.04 0.03 0.04 0.04 0.03 0.05 0.07 0.06 0.07 0.07 0.09 0.13 0.14 0.13 0.15 0.15 0.17 0.19 0.20 0.18 0.14 0.12 0.09 0.07 0.06 0.06 0.06 0.06 0.06 0.05 0.04
0.06 0.07 0.07 0.07 0.08 0.09 0.07 0.07 0.06 0.06 0.06 0.05 0.04 0.03 0.03 0.04 0.06 0.07 0.07 0.08 0.07 0.07 0.09 0.13 0.14 0.14 0.16 0.18 0.18 0.18 0.19 0.18 0.17 0.14 0.11 0.09 0.07 0.07 0.07 0.06 0.05 0.05 0.04
0.06 0.08 0.08 0.08 0.08 0.08 0.07 0.07 0.06 0.06 0.04 0.05 0.05 0.04 0.03 0.03 0.04 0.06 0.06 0.07 0.08 0.08 0.09 0.10 0.11 0.13 0.15 0.19 0.18 0.18 0.19 0.21 0.19 0.17 0.13 0.11 0.09 0.09 0.09 0.07 0.06 0.05 0.05
0.04 0.07 0.07 0.08 0.09 0.08 0.08 0.07 0.07 0.07 0.06 0.05 0.05 0.05 0.03 0.03 0.04 0.05 0.05 0.05 0.07 0.07 0.08 0.08 0.08 0.09 0.11 0.13 0.16 0.17 0.20 0.21 0.21 0.18 0.15 0.13 0.11 0.09 0.07 0.07 0.07 0.05 0.05
0.02 0.03 0.06 0.09 0.08 0.07 0.08 0.07 0.06 0.06 0.06 0.06 0.05 0.04 0.03 0.03 0.03 0.04 0.04 0.05 0.06 0.07 0.08 0.08 0.05 0.05 0.08 0.09 0.12 0.15 0.17 0.19 0.20 0.20 0.20 0.19 0.16 0.12 0.10 0.09 0.07 0.06 0.06
0.03 0.03 0.03 0.04 0.05 0.06 0.06 0.06 0.05 0.05 0.05 0.05 0.04 0.03 0.02 0.02 0.03 0.04 0.05 0.06 0.06 0.05 0.07 0.08 0.06 0.05 0.05 0.06 0.09 0.12 0.15 0.17 0.20 0.22 0.21 0.19 0.18 0.14 0.10 0.08 0.07 0.07 0.07
0.03 0.03 0.03 0.02 0.02 0.04 0.05 0.04 0.04 0.04 0.04 0.04 0.03 0.03 0.03 0.03 0.03 0.04 0.05 0.07 0.06 0.04 0.05 0.08 0.07 0.05 0.04 0.05 0.06 0.08 0.11 0.17 0.21 0.22 0.23 0.23 0.20 0.16 0.13 0.10 0.09 0.07 0.07
0.02 0.02 0.02 0.02 0.02 0.03 0.03 0.03 0.03 0.04 0.04 0.05 0.05 0.04 0.04 0.04 0.04 0.04 0.07 0.07 0.05 0.04 0.05 0.05 0.05 0.05 0.06 0.08 0.09 0.09 0.11 0.17 0.25 0.29 0.30 0.28 0.24 0.20 0.17 0.16 0.13 0.10 0.07
0.02 0.02 0.02 0.03 0.03 0.02 0.02 0.02 0.02 0.03 0.04 0.04 0.05 0.07 0.09 0.08 0.05 0.05 0.05 0.06 0.06 0.07 0.08 0.08 0.06 0.06 0.08 0.10 0.10 0.12 0.14 0.16 0.19 0.22 0.25 0.24 0.22 0.22 0.20 0.18 0.17 0.14 0.10
0.01 0.01 0.02 0.03 0.04 0.03 0.02 0.02 0.02 0.02 0.03 0.03 0.04 0.05 0.06 0.07 0.07 0.07 0.06 0.06 0.06 0.07 0.08 0.08 0.07 0.07 0.09 0.10 0.12 0.14 0.16 0.17 0.15 0.15 0.16 0.15 0.16 0.18 0.19 0.17 0.14 0.12 0.11
0.01 0.01 0.01 0.01 0.02 0.02 0.02 0.02 0.02 0.02 0.02 0.03 0.04 0.05 0.05 0.06 0.07 0.08 0.09 0.10 0.09 0.08 0.08 0.08 0.07 0.08 0.09 0.10 0.13 0.14 0.16 0.14 0.11 0.10 0.12 0.15 0.15 0.16 0.16 0.16 0.15 0.12 0.10
0.02 0.01 0.01 0.01 0.01 0.01 0.01 0.02 0.02 0.02 0.02 0.02 0.03 0.04 0.05 0.07 0.07 0.07 0.09 0.09 0.09 0.09 0.09 0.09 0.08 0.07 0.10 0.11 0.12 0.14 0.14 0.12 0.10 0.09 0.10 0.13 0.14 0.13 0.14 0.16 0.19 0.17 0.13
0.01 0.01 0.01 0.01 0.01 0.01 0.01 0.01 0.02 0.02 0.02 0.02 0.03 0.04 0.06 0.07 0.07 0.08 0.08 0.09 0.09 0.10 0.10 0.09 0.09 0.08 0.09 0.10 0.12 0.12 0.10 0.10 0.10 0.09 0.09 0.10 0.12 0.13 0.11 0.10 0.12 0.15 0.15
0.01 0.01 0.01 0.01 0.01 0.01 0.01 0.01 0.01 0.02 0.03 0.02 0.02 0.02 0.04 0.06 0.08 0.09 0.09 0.11 0.11 0.10 0.07 0.07 0.08 0.08 0.09 0.10 0.10 0.09 0.07 0.06 0.06 0.07 0.07 0.07 0.06 0.07 0.09 0.09 0.08 0.08 0.10
0.01 0.00 0.01 0.01 0.00 0.01 0.01 0.02 0.01 0.01 0.02 0.02 0.02 0.03 0.03 0.04 0.05 0.06 0.06 0.07 0.09 0.10 0.07 0.06 0.07 0.07 0.06 0.07 0.07 0.05 0.04 0.04 0.04 0.04 0.04 0.04 0.03 0.04 0.05 0.07 0.09 0.08 0.07
0.01 0.01 0.00 0.01 0.00 0.01 0.01 0.01 0.01 0.01 0.01 0.01 0.03 0.04 0.05 0.05 0.05 0.04 0.04 0.04 0.05 0.06 0.06 0.06 0.07 0.07 0.05 0.05 0.05 0.05 0.04 0.03 0.03 0.03 0.03 0.03 0.04 0.04 0.05 0.07 0.07 0.08 0.08
0.01 0.01 0.01 0.01 0.01 0.01 0.01 0.01 0.01 0.01 0.01 0.01 0.01 0.02 0.03 0.04 0.03 0.03 0.03 0.03 0.04 0.04 0.05 0.06 0.07 0.07 0.07 0.06 0.05 0.05 0.04 0.03 0.03 0.04 0.04 0.04 0.05 0.04 0.05 0.07 0.09 0.09 0.09
0.01 0.01 0.01 0.01 0.01 0.01 0.01 0.01 0.01 0.01 0.01 0.01 0.01 0.02 0.02 0.02 0.03 0.03 0.03 0.03 0.03 0.04 0.05 0.06 0.07 0.07 0.07 0.07 0.07 0.06 0.05 0.04 0.03 0.04 0.04 0.04 0.05 0.05 0.05 0.06 0.06 0.08 0.11
0.01 0.01 0.01 0.02 0.01 0.01 0.01 0.01 0.01 0.02 0.01 0.01 0.01 0.01 0.02 0.03 0.04 0.04 0.04 0.03 0.03 0.03 0.04 0.05 0.06 0.05 0.06 0.06 0.05 0.05 0.04 0.06 0.06 0.05 0.04 0.04 0.05 0.05 0.05 0.05 0.05 0.06 0.09
0.01 0.01 0.01 0.02 0.02 0.01 0.00 0.01 0.02 0.02 0.01 0.01 0.00 0.01 0.02 0.02 0.04 0.03 0.02 0.02 0.02 0.02 0.02 0.03 0.05 0.05 0.06 0.06 0.06 0.05 0.05 0.05 0.05 0.05 0.06 0.05 0.06 0.06 0.06 0.05 0.04 0.05 0.06
0.02 0.02 0.02 0.02 0.02 0.01 0.01 0.01 0.01 0.01 0.01 0.01 0.01 0.01 0.01 0.01 0.01 0.01 0.01 0.02 0.02 0.02 0.03 0.04 0.05 0.06 0.06 0.06 0.06 0.05 0.05 0.05 0.04 0.03 0.04 0.03 0.04 0.06 0.07 0.07 0.06 0.06 0.07
0.03 0.03 0.01 0.02 0.02 0.01 0.01 0.02 0.02 0.01 0.02 0.02 0.01 0.01 0.01 0.01 0.01 0.01 0.01 0.01 0.02 0.03 0.04 0.04 0.05 0.06 0.07 0.06 0.05 0.04 0.04 0.05 0.05 0.04 0.03 0.03 0.03 0.04 0.04 0.05 0.07 0.07 0.06
0.03 0.02 0.02 0.03 0.03 0.02 0.02 0.02 0.02 0.01 0.01 0.01 0.02 0.02 0.01 0.00 0.01 0.02 0.03 0.03 0.04 0.04 0.04 0.04 0.05 0.06 0.06 0.06 0.05 0.05 0.05 0.05 0.04 0.03 0.03 0.04 0.04 0.04 0.04 0.05 0.05 0.05 0.04
0.03 0.03 0.03 0.03 0.03 0.02 0.02 0.02 0.02 0.02 0.02 0.01 0.01 0.01 0.01 0.01 0.01 0.03 0.05 0.06 0.07 0.07 0.07 0.06 0.08 0.07 0.05 0.05 0.05 0.04 0.04 0.04 0.04 0.03 0.03 0.04 0.04 0.04 0.03 0.04 0.04 0.03 0.02
0.03 0.02 0.02 0.02 0.03 0.02 0.02 0.01 0.01 0.02 0.02 0.02 0.02 0.02 0.02 0.01 0.02 0.03 0.05 0.07 0.08 0.08 0.08 0.07 0.08 0.08 0.07 0.05 0.05 0.04 0.04 0.04 0.04 0.04 0.03 0.03 0.04 0.04 0.04 0.03 0.02 0.01 0.01
0.02 0.01 0.02 0.02 0.02 0.02 0.02 0.02 0.02 0.02 0.03 0.03 0.03 0.03 0.03 0.03 0.03 0.04 0.05 0.06 0.08 0.09 0.07 0.09 0.10 0.10 0.07 0.05 0.04 0.03 0.03 0.04 0.04 0.04 0.03 0.03 0.03 0.03 0.04 0.03 0.02 0.02 0.01
MSLP
1018.29 1018.56 1018.79 1018.96 1019.08 1019.14 1019.16 1019.15 1019.12 1019.08 1019.03 1018.99 1018.93 1018.88 1018.83 1018.81 1018.83 1018.91 1019.06 1019.27 1019.53 1019.83 1020.14 1020.43 1020.69 1020.90 1021.06 1021.18 1021.26 1021.32 1021.38 1021.44 1021.50 1021.58 1021.67 1021.77 1021.89 1022.03 1022.19 1022.37 1022.57 1022.79 1023.02
1018.20 1018.44 1018.66 1018.83 1018.96 1019.03 1019.06 1019.06 1019.04 1019.00 1018.96 1018.91 1018.87 1018.82 1018.77 1018.75 1018.76 1018.82 1018.93 1019.11 1019.34 1019.61 1019.91 1020.19 1020.46 1020.69 1020.87 1021.01 1021.11 1021.19 1021.25 1021.31 1021.37 1021.45 1021.54 1021.65 1021.79 1021.95 1022.14 1022.35 1022.59 1022.85 1023.13
1018.10 1018.32 1018.52 1018.70 1018.84 1018.93 1018.99 1019.01 1019.00 1018.98 1018.93 1018.88 1018.82 1018.76 1018.70 1018.65 1018.63 1018.66 1018.75 1018.89 1019.10 1019.34 1019.62 1019.90 1020.16 1020.39 1020.58 1020.73 1020.84 1020.93 1021.00 1021.08 1021.16 1021.26 1021.39 1021.54 1021.72 1021.93 1022.17 1022.43 1022.71 1023.01 1023.32
1017.96 1018.15 1018.34 1018.52 1018.67 1018.80 1018.89 1018.94 1018.96 1018.95 1018.91 1018.84 1018.76 1018.67 1018.58 1018.51 1018.46 1018.46 1018.52 1018.64 1018.81 1019.04 1019.29 1019.55 1019.79 1020.00 1020.17 1020.31 1020.41 1020.50 1020.58 1020.68 1020.81 1020.98 1021.18 1021.41 1021.67 1021.96 1022.27 1022.59 1022.91 1023.25 1023.59
1017.75 1017.91 1018.09 1018.27 1018.45 1018.61 1018.74 1018.83 1018.87 1018.88 1018.84 1018.77 1018.68 1018.56 1018.44 1018.34 1018.27 1018.25 1018.28 1018.38 1018.54 1018.73 1018.96 1019.17 1019.37 1019.53 1019.65 1019.74 1019.81 1019.88 1019.98 1020.12 1020.32 1020.58 1020.88 1021.24 1021.62 1022.02 1022.41 1022.80 1023.18 1023.54 1023.90
1017.46 1017.60 1017.78 1017.97 1018.18 1018.37 1018.53 1018.66 1018.74 1018.77 1018.74 1018.67 1018.57 1018.44 1018.31 1018.19 1018.11 1018.08 1018.10 1018.19 1018.32 1018.49 1018.66 1018.82 1018.95 1019.03 1019.07 1019.09 1019.11 1019.15 1019.26 1019.44 1019.72 1020.09 1020.53 1021.03 1021.55 1022.08 1022.58 1023.04 1023.47 1023.86 1024.22
1017.16 1017.29 1017.46 1017.67 1017.89 1018.11 1018.31 1018.48 1018.59 1018.64 1018.64 1018.58 1018.48 1018.36 1018.23 1018.11 1018.03 1018.00 1018.03 1018.11 1018.22 1018.35 1018.47 1018.56 1018.60 1018.58 1018.52 1018.45 1018.40 1018.41 1018.52 1018.74 1019.10 1019.59 1020.17 1020.82 1021.49 1022.14 1022.75 1023.28 1023.75 1024.16 1024.51
1016.90 1017.04 1017.21 1017.43 1017.67 1017.91 1018.13 1018.33 1018.47 1018.55 1018.57 1018.54 1018.46 1018.35 1018.23 1018.14 1018.07 1018.06 1018.09 1018.17 1018.26 1018.36 1018.42 1018.43 1018.38 1018.27 1018.11 1017.95 1017.83 1017.79 1017.90 1018.16 1018.59 1019.18 1019.89 1020.66 1021.46 1022.22 1022.91 1023.51 1024.00 1024.41 1024.75
1016.78 1016.92 1017.10 1017.32 1017.56 1017.81 1018.05 1018.26 1018.42 1018.53 1018.57 1018.57 1018.51 1018.43 1018.35 1018.28 1018.23 1018.24 1018.28 1018.36 1018.44 1018.51 1018.53 1018.48 1018.35 1018.15 1017.91 1017.68 1017.50 1017.44 1017.54 1017.82 1018.31 1018.97 1019.76 1020.63 1021.51 1022.35 1023.09 1023.72 1024.22 1024.61 1024.92
1016.83 1016.99 1017.16 1017.38 1017.61 1017.85 1018.08 1018.29 1018.46 1018.58 1018.65 1018.67 1018.64 1018.59 1018.54 1018.49 1018.48 1018.50 1018.55 1018.63 1018.71 1018.76 1018.75 1018.67 1018.50 1018.26 1017.98 1017.72 1017.51 1017.43 1017.53 1017.83 1018.34 1019.03 1019.86 1020.76 1021.68 1022.53 1023.29 1023.91 1024.39 1024.76 1025.05
1017.05 1017.21 1017.38 1017.58 1017.78 1018.00 1018.21 1018.40 1018.57 1018.69 1018.77 1018.81 1018.80 1018.78 1018.74 1018.72 1018.72 1018.76 1018.82 1018.90 1018.98 1019.03 1019.03 1018.95 1018.79 1018.57 1018.30 1018.05 1017.86 1017.79 1017.89 1018.19 1018.70 1019.38 1020.19 1021.08 1021.96 1022.79 1023.51 1024.10 1024.55 1024.89 1025.15
1017.38 1017.54 1017.70 1017.87 1018.04 1018.21 1018.38 1018.55 1018.69 1018.80 1018.88 1018.92 1018.93 1018.91 1018.89 1018.88 1018.89 1018.93 1019.00 1019.09 1019.19 1019.26 1019.30 1019.27 1019.17 1019.01 1018.82 1018.62 1018.49 1018.46 1018.57 1018.86 1019.34 1019.97 1020.72 1021.54 1022.35 1023.10 1023.76 1024.29 1024.70 1025.00 1025.24
1017.76 1017.91 1018.04 1018.17 1018.29 1018.42 1018.55 1018.66 1018.77 1018.86 1018.92 1018.96 1018.96 1018.95 1018.93 1018.91 1018.92 1018.96 1019.03 1019.14 1019.27 1019.39 1019.50 1019.56 1019.56 1019.52 1019.43 1019.35 1019.30 1019.32 1019.47 1019.74 1020.17 1020.73 1021.38 1022.09 1022.79 1023.45 1024.02 1024.49 1024.85 1025.13 1025.35
1018.11 1018.24 1018.34 1018.43 1018.50 1018.58 1018.65 1018.72 1018.79 1018.84 1018.88 1018.89 1018.88 1018.86 1018.83 1018.80 1018.80 1018.83 1018.91 1019.04 1019.21 1019.40 1019.59 1019.77 1019.91 1020.01 1020.07 1020.12 1020.17 1020.27 1020.44 1020.70 1021.07 1021.53 1022.07 1022.65 1023.24 1023.79 1024.28 1024.69 1025.01 1025.28 1025.49
1018.40 1018.50 1018.56 1018.61 1018.64 1018.66 1018.68 1018.71 1018.73 1018.75 1018.75 1018.74 1018.71 1018.66 1018.61 1018.57 1018.55 1018.58 1018.67 1018.83 1019.04 1019.30 1019.59 1019.89 1020.18 1020.43 1020.65 1020.83 1020.99 1021.16 1021.35 1021.59 1021.90 1022.27 1022.69 1023.15 1023.62 1024.07 1024.49 1024.85 1025.16 1025.43 1025.65
1018.63 1018.69 1018.73 1018.73 1018.72 1018.71 1018.69 1018.67 1018.65 1018.63 1018.60 1018.56 1018.50 1018.42 1018.35 1018.29 1018.26 1018.28 1018.38 1018.56 1018.82 1019.15 1019.53 1019.95 1020.37 1020.76 1021.11 1021.41 1021.67 1021.90 1022.11 1022.32 1022.56 1022.84 1023.16 1023.50 1023.87 1024.25 1024.62 1024.96 1025.27 1025.55 1025.80
1018.84 1018.87 1018.87 1018.85 1018.82 1018.77 1018.72 1018.67 1018.62 1018.56 1018.49 1018.41 1018.32 1018.22 1018.12 1018.03 1017.99 1018.01 1018.11 1018.31 1018.61 1018.99 1019.45 1019.95 1020.47 1020.97 1021.42 1021.82 1022.14 1022.40 1022.62 1022.80 1022.98 1023.18 1023.41 1023.67 1023.97 1024.29 1024.63 1024.97 1025.30 1025.61 1025.89
1019.08 1019.09 1019.07 1019.04 1018.99 1018.92 1018.85 1018.78 1018.69 1018.60 1018.49 1018.37 1018.24 1018.11 1017.98 1017.87 1017.82 1017.83 1017.93 1018.14 1018.45 1018.87 1019.37 1019.93 1020.51 1021.07 1021.58 1022.03 1022.38 1022.66 1022.86 1023.02 1023.15 1023.28 1023.43 1023.63 1023.88 1024.17 1024.50 1024.86 1025.21 1025.55 1025.87
1019.40 1019.39 1019.37 1019.33 1019.27 1019.21 1019.12 1019.03 1018.91 1018.78 1018.63 1018.47 1018.30 1018.12 1017.96 1017.83 1017.76 1017.76 1017.85 1018.06 1018.38 1018.80 1019.31 1019.89 1020.48 1021.06 1021.59 1022.04 1022.41 1022.67 1022.86 1022.98 1023.06 1023.15 1023.25 1023.41 1023.62 1023.90 1024.23 1024.59 1024.97 1025.35 1025.69
1019.81 1019.79 1019.77 1019.73 1019.69 1019.62 1019.53 1019.41 1019.27 1019.10 1018.90 1018.69 1018.47 1018.26 1018.06 1017.90 1017.80 1017.78 1017.86 1018.05 1018.35 1018.76 1019.25 1019.81 1020.38 1020.94 1021.45 1021.89 1022.23 1022.48 1022.64 1022.73 1022.78 1022.83 1022.90 1023.03 1023.22 1023.48 1023.80 1024.18 1024.57 1024.96 1025.32
1020.28 1020.27 1020.25 1020.23 1020.19 1020.12 1020.03 1019.89 1019.72 1019.50 1019.26 1019.00 1018.73 1018.47 1018.24 1018.05 1017.92 1017.88 1017.93 1018.09 1018.36 1018.73 1019.18 1019.68 1020.21 1020.72 1021.20 1021.59 1021.91 1022.12 1022.26 1022.33 1022.36 1022.39 1022.44 1022.54 1022.71 1022.95 1023.26 1023.62 1024.00 1024.39 1024.75
1020.78 1020.76 1020.76 1020.75 1020.72 1020.66 1020.55 1020.40 1020.19 1019.94 1019.65 1019.34 1019.03 1018.73 1018.46 1018.23 1018.08 1018.00 1018.02 1018.15 1018.37 1018.68 1019.07 1019.51 1019.98 1020.43 1020.85 1021.20 1021.48 1021.67 1021.79 1021.85 1021.87 1021.89 1021.92 1022.00 1022.14 1022.35 1022.63 1022.95 1023.30 1023.66 1023.99
1021.23 1021.23 1021.24 1021.24 1021.22 1021.16 1021.04 1020.87 1020.64 1020.35 1020.03 1019.68 1019.33 1018.99 1018.69 1018.44 1018.25 1018.15 1018.14 1018.22 1018.39 1018.64 1018.96 1019.33 1019.73 1020.11 1020.47 1020.78 1021.02 1021.20 1021.31 1021.36 1021.38 1021.39 1021.41 1021.47 1021.58 1021.74 1021.96 1022.22 1022.51 1022.81 1023.10
1021.62 1021.63 1021.65 1021.67 1021.65 1021.59 1021.46 1021.28 1021.03 1020.72 1020.37 1020.00 1019.63 1019.27 1018.95 1018.68 1018.47 1018.35 1018.30 1018.34 1018.45 1018.64 1018.90 1019.19 1019.51 1019.83 1020.13 1020.40 1020.61 1020.77 1020.87 1020.93 1020.95 1020.95 1020.96 1020.99 1021.06 1021.16 1021.31 1021.49 1021.70 1021.92 1022.14
1021.94 1021.96 1021.99 1022.01 1022.00 1021.94 1021.81 1021.62 1021.36 1021.04 1020.69 1020.31 1019.93 1019.58 1019.25 1018.98 1018.76 1018.62 1018.55 1018.55 1018.61 1018.75 1018.93 1019.15 1019.40 1019.66 1019.90 1020.12 1020.31 1020.45 1020.54 1020.60 1020.62 1020.62 1020.61 1020.61 1020.62 1020.66 1020.73 1020.82 1020.93 1021.06 1021.19
1022.22 1022.25 1022.29 1022.31 1022.30 1022.24 1022.11 1021.92 1021.67 1021.36 1021.01 1020.65 1020.29 1019.94 1019.63 1019.37 1019.15 1019.00 1018.91 1018.88 1018.91 1018.99 1019.11 1019.27 1019.45 1019.64 1019.83 1020.00 1020.15 1020.26 1020.35 1020.39 1020.40 1020.39 1020.36 1020.33 1020.29 1020.27 1020.25 1020.25 1020.26 1020.28 1020.31
Thickness
5711 5711 5709 5708 5709 5708 5708 5708 5709 5708 5708 5709 5709 5710 5710 5710 5710 5710 5710 5707 5705 5704 5704 5705 5704 5704 5703 5702 5701 5700 5699 5698 5697 5697 5696 5695 5694 5694 5693 5692 5691 5690 5689
5705 5705 5704 5703 5703 5703 5703 5703 5704 5703 5704 5704 5704 5704 5704 5705 5704 5703 5704 5703 5701 5700 5700 5700 5700 5700 5700 5699 5698 5697 5696 5696 5695 5694 5693 5692 5691 5690 5689 5689 5688 5686 5685
5698 5699 5699 5698 5698 5697 5697 5698 5698 5698 5698 5699 5698 5698 5698 5698 5698 5698 5698 5698 5697 5696 5695 5695 5695 5695 5695 5695 5695 5694 5694 5693 5692 5691 5690 5689 5687 5686 5685 5684 5683 5682 5681
5692 5693 5693 5693 5692 5692 5692 5693 5693 5693 5693 5692 5692 5692 5692 5692 5692 5692 5692 5692 5692 5693 5692 5690 5690 5690 5690 5690 5691 5691 5691 5690 5689 5688 5687 5685 5684 5682 5681 5679 5678 5677 5676
5686 5687 5686 5686 5685 5686 5686 5687 5687 5687 5686 5685 5686 5686 5686 5687 5686 5686 5686 5686 5686 5685 5685 5685 5684 5684 5685 5685 5686 5686 5686 5686 5685 5684 5683 5681 5680 5678 5677 5675 5673 5672 5671
5679 5680 5681 5679 5679 5680 5679 5679 5678 5679 5679 5679 5680 5680 5680 5680 5679 5679 5680 5679 5679 5679 5679 5678 5679 5679 5678 5679 5680 5681 5681 5681 5681 5680 5679 5677 5675 5674 5672 5670 5668 5667 5665
5672 5672 5673 5672 5672 5673 5672 5673 5672 5672 5672 5673 5672 5672 5673 5674 5672 5671 5672 5672 5672 5671 5671 5671 5671 5672 5673 5673 5674 5675 5675 5676 5675 5675 5673 5672 5670 5668 5667 5665 5663 5661 5660
5664 5665 5663 5665 5665 5665 5664 5664 5664 5665 5665 5665 5664 5665 5664 5665 5664 5665 5663 5663 5663 5664 5663 5663 5663 5663 5665 5667 5667 5668 5668 5669 5669 5668 5667 5666 5664 5662 5660 5659 5657 5655 5654
5656 5655 5655 5655 5656 5658 5658 5657 5656 5656 5657 5657 5657 5656 5656 5655 5655 5655 5654 5654 5654 5654 5654 5654 5654 5655 5657 5658 5659 5659 5659 5660 5661 5661 5660 5658 5657 5656 5654 5653 5651 5649 5647
5648 5647 5647 5646 5647 5649 5648 5649 5649 5649 5648 5649 5649 5649 5648 5648 5645 5645 5645 5645 5645 5645 5645 5645 5646 5646 5647 5648 5649 5649 5650 5650 5651 5652 5652 5651 5650 5649 5647 5646 5644 5642 5641
5639 5638 5638 5638 5639 5640 5639 5639 5639 5640 5641 5640 5641 5641 5640 5639 5639 5637 5635 5636 5636 5637 5637 5637 5637 5638 5638 5640 5640 5640 5640 5641 5641 5642 5642 5642 5641 5641 5640 5638 5637 5635 5634
5632 5630 5630 5629 5630 5631 5630 5630 5631 5632 5631 5631 5632 5632 5632 5631 5631 5631 5630 5629 5628 5628 5628 5628 5629 5630 5631 5631 5632 5632 5632 5632 5632 5632 5633 5633 5633 5632 5631 5630 5629 5628 5626
5624 5621 5621 5620 5621 5621 5621 5621 5622 5622 5622 5622 5622 5624 5624 5624 5624 5624 5623 5622 5620 5620 5619 5620 5621 5622 5623 5623 5623 5623 5623 5623 5623 5623 5623 5624 5623 5623 5622 5622 5621 5620 5618
5614 5611 5611 5611 5612 5613 5613 5613 5614 5614 5613 5613 5614 5614 5615 5616 5616 5616 5616 5614 5613 5614 5613 5612 5613 5613 5614 5614 5614 5614 5614 5614 5614 5614 5614 5614 5614 5613 5613 5613 5612 5611 5609
5604 5602 5602 5603 5603 5604 5604 5605 5605 5605 5604 5605 5606 5606 5607 5608 5608 5608 5609 5608 5607 5605 5605 5605 5605 5605 5605 5605 5605 5606 5606 5605 5605 5605 5605 5605 5605 5604 5604 5604 5603 5602 5600
5594 5593 5593 5594 5595 5596 5596 5597 5598 5596 5596 5596 5595 5596 5597 5599 5600 5600 5600 5601 5601 5600 5598 5598 5597 5596 5596 5596 5596 5597 5598 5597 5596 5596 5596 5596 5597 5596 5596 5595 5594 5593 5592
5584 5584 5585 5586 5586 5587 5587 5587 5588 5588 5588 5588 5588 5589 5589 5589 5591 5591 5592 5593 5593 5593 5591 5590 5589 5588 5587 5588 5588 5589 5590 5591 5590 5589 5588 5588 5588 5588 5588 5587 5587 5586 5584
5576 5576 5577 5577 5578 5578 5578 5578 5578 5579 5579 5579 5580 5580 5580 5581 5581 5582 5583 5584 5584 5583 5583 5581 5581 5581 5580 5580 5581 5581 5583 5584 5584 5582 5581 5580 5580 5580 5580 5580 5579 5578 5578
5568 5568 5568 5568 5568 5568 5568 5568 5569 5570 5570 5570 5571 5571 5571 5572 5572 5573 5574 5576 5576 5576 5576 5576 5575 5574 5574 5574 5574 5575 5576 5577 5578 5576 5574 5573 5573 5573 5572 5572 5572 5571 5571
5561 5561 5560 5560 5560 5560 5560 5561 5561 5562 5562 5562 5562 5563 5563 5564 5564 5565 5567 5567 5568 5569 5569 5570 5570 5570 5569 5568 5569 5570 5571 5572 5573 5572 5570 5569 5568 5567 5567 5566 5566 5565 5564
5555 5555 5555 5554 5553 5553 5551 5551 5554 5555 5554 5555 5555 5556 5555 5555 5554 5556 5559 5560 5562 5563 5565 5565 5565 5565 5564 5563 5564 5565 5566 5567 5567 5567 5567 5566 5566 5565 5563 5562 5561 5560 5559
5550 5550 5549 5548 5547 5546 5542 5542 5544 5548 5548 5548 5549 5550 5550 5550 5549 5549 5550 5551 5553 5557 5559 5560 5561 5560 5558 5559 5559 5561 5562 5563 5563 5563 5563 5563 5563 5563 5561 5560 5558 5556 5554
5546 5545 5544 5544 5542 5538 5536 5537 5538 5542 5543 5542 5543 5545 5547 5546 5546 5547 5547 5547 5549 5549 5551 5555 5556 5556 5556 5556 5556 5557 5558 5559 5559 5560 5559 5560 5560 5559 5558 5557 5554 5552 5550
5542 5541 5541 5540 5538 5534 5532 5533 5534 5538 5539 5539 5539 5540 5540 5541 5541 5541 5545 5547 5548 5548 5549 5550 5552 5552 5552 5551 5552 5553 5554 5555 5556 5557 5557 5556 5557 5557 5557 5554 5551 5549 5548
5539 5538 5537 5536 5534 5532 5529 5530 5531 5536 5537 5536 5536 5536 5537 5537 5534 5535 5541 5544 5545 5544 5544 5545 5546 5546 5546 5546 5546 5549 5552 5554 5556 5557 5556 5555 5555 5555 5554 5553 5551 5548 5547
5538 5537 5535 5534 5532 5531 5528 5529 5529 5535 5535 5536 5535 5534 5531 5531 5530 5532 5537 5540 5541 5542 5543 5544 5543 5544 5545 5545 5544 5546 5550 5553 5554 5554 5555 5553 5553 5553 5552 5553 5551 5548 5546